Weather observations for the past three days for
Norman / Max Westheimer
Imperial (Metric)
Date Time (cdt) Wind (mph) Vis. (mi.) Weather Sky Cond. Temperature (ºF) Relative Humidity Wind Chill (°F) Heat Index (°F) Pressure Precipitation (in)
Air Dwpt 6 hour altimeter (in) sea level (mb) 1 hr 3 hr 6 hr
Max. Min.
12 18:45 S 21 G 28 10.00 Fair and Breezy CLR 91.4 64.4 41% 93 30.01 0.0
12 17:45 S 16 G 24 10.00 Fair CLR 93.2 64.4 39% 95 30 0.0
12 16:45 S 15 G 23 10.00 Fair CLR 93.2 68 44% 98 30.02 0.0
12 15:45 SE 17 10.00 Fair CLR 93.2 68 44% 98 30.02 0.0
12 07:35 S 13 10.00 Fair CLR 76.5 67.3 73% 78 30.04 0.0
12 07:15 S 12 10.00 Fair CLR 75.2 67.3 77% 76 30.03 0.0
12 06:55 S 12 10.00 Fair CLR 74.7 67.1 80.4 74.5 77% 30.03 0.0
12 06:35 S 9 10.00 Fair CLR 74.5 67.1 78% 30.02 0.0
12 06:15 S 10 10.00 Fair CLR 74.5 66.9 77% 30.02 0.0
12 05:55 S 9 10.00 Fair CLR 74.7 66.9 77% 30.02 0.0
12 05:35 S 9 10.00 Fair CLR 74.8 66.9 76% 30.01 0.0
12 05:15 S 9 10.00 Fair CLR 75.6 66.9 75% 77 30.01 0.0
12 04:55 S 9 10.00 Fair CLR 75.9 66.9 74% 77 30 0.0
12 04:35 S 10 10.00 Fair CLR 76.3 66.9 73% 78 29.99 0.0
12 04:15 S 12 10.00 Fair CLR 76.6 66.9 72% 78 29.98 0.0
12 03:55 S 12 10.00 Fair CLR 77 67.1 72% 79 29.98 0.0
12 03:35 S 10 10.00 Fair CLR 77.4 67.1 71% 79 29.98 0.0
12 03:15 S 12 10.00 Fair CLR 77.5 67.1 70% 79 29.99 0.0
12 02:55 S 12 10.00 Fair CLR 77.9 67.1 70% 80 29.98 0.0
12 02:35 S 10 10.00 Fair CLR 77.9 67.1 70% 80 29.98 0.0
12 02:15 S 12 10.00 Fair CLR 78.4 66.9 68% 81 29.98 0.0
12 01:55 S 10 10.00 Fair CLR 79.2 66.9 66% 81 29.99 0.0
12 01:35 S 12 10.00 Fair CLR 79.5 66.9 65% 82 29.99 0.0
12 01:15 S 12 10.00 Fair CLR 80.1 66.7 64% 82 29.99 0.0
12 00:55 S 13 10.00 Fair CLR 80.4 66.7 92.8 80.2 63% 83 29.99 0.0
12 00:35 S 13 10.00 Fair CLR 81.1 66.7 62% 84 29.99 0.0
12 00:15 S 10 10.00 Fair CLR 81.5 66.7 61% 84 29.99 0.0
11 23:55 S 10 10.00 Fair CLR 82.4 66.2 58% 85 29.99 0.0
11 23:35 S 10 10.00 Fair CLR 83.1 65.8 56% 85 29.98 0.0
11 23:15 S 12 10.00 Fair CLR 83.8 65.8 55% 86 29.98 0.0
11 22:55 S 10 10.00 Fair CLR 84.4 65.5 53% 86 29.98 0.0
11 22:35 S 12 10.00 Fair CLR 85.1 66 53% 87 29.98 0.0
11 22:15 S 14 10.00 Fair CLR 85.6 66.6 53% 88 29.97 0.0
11 21:55 SE 14 10.00 Fair CLR 86.2 67.3 53% 89 29.96 0.0
11 17:48 S 15 10.00 Fair CLR 95 66.2 39% 98 29.94 0.0
11 16:52 S 15 G 24 10.00 Fair CLR 96.8 66.2 37% 100 29.96 0.0
11 15:45 S 14 G 23 10.00 Fair CLR 95 64.4 36% 97 29.97 0.0
11 14:45 S 13 G 21 10.00 Fair CLR 95 64.4 36% 97 29.98 0.0
11 13:45 S 14 G 20 10.00 Fair CLR 93.2 66.2 41% 96 29.99 0.0
11 12:45 S 14 10.00 Fair CLR 91.4 68 46% 96 30.01 0.0
11 11:45 S 12 10.00 Fair CLR 89.6 69.8 52% 95 30.01 0.0
11 10:45 S 10 10.00 Fair CLR 86 69.8 59% 91 30.02 0.0
11 09:45 S 13 10.00 Fair CLR 82.4 69.8 66% 86 30.02 0.0
11 08:46 S 10 10.00 Fair CLR 78.8 68 70% 81 30.03 0.0
11 07:45 SE 10 10.00 Fair CLR 75.2 69.8 83% 75 30.01 0.0
11 07:35 S 10 10.00 Fair CLR 75.7 69.1 80% 77 30.01 0.0
11 07:15 S 12 10.00 Partly Cloudy SCT065 SCT090 SCT110 75.2 69.1 81% 76 30.01 0.0
11 06:55 S 12 10.00 Light Rain SCT044 SCT065 BKN120 74.5 69.3 79.7 73.8 84% 30 0.0
11 06:35 S 8 10.00 Mostly Cloudy BKN120 75 68.4 80% 76 30.01 0.0
11 06:15 S 8 10.00 Mostly Cloudy BKN110 74.5 68.5 82% 30 0.0
11 05:55 S 8 10.00 Mostly Cloudy BKN110 74.1 68.2 82% 30 0.0
11 05:35 S 7 10.00 Partly Cloudy SCT120 73.9 68.2 82% 30 0.0
11 05:15 S 7 10.00 Partly Cloudy SCT120 74.3 68.2 81% 30 0.0
11 04:55 S 8 10.00 Fair CLR 74.1 68.2 82% 30 0.0
11 04:35 S 8 10.00 Partly Cloudy SCT100 74.5 68.2 81% 30 0.0
11 04:15 S 7 10.00 Partly Cloudy SCT100 74.8 68.2 80% 30 0.0
11 03:55 S 8 10.00 Fair CLR 75 68 79% 76 30 0.0
11 03:35 S 7 10.00 Fair CLR 75.2 68 78% 76 30 0.0
11 03:15 S 6 10.00 Fair CLR 75.4 67.8 77% 76 30 0.0
11 02:55 S 7 10.00 Fair CLR 75.9 67.8 76% 77 30 0.0
11 02:35 S 8 10.00 Fair CLR 76.1 67.3 74% 78 30 0.0
11 02:15 SE 8 10.00 Fair CLR 76.5 67.1 73% 78 30 0.0
11 01:55 SE 7 10.00 Fair CLR 77 66.6 70% 79 30.01 0.0
11 01:35 S 7 10.00 Fair CLR 77.9 66.2 67% 80 30.02 0.0
11 01:15 S 9 10.00 Fair CLR 78.8 66 65% 81 30.01 0.0
11 00:55 SE 8 10.00 Fair CLR 79.7 65.1 90.7 79.5 61% 82 30.02 0.0
11 00:35 SE 7 10.00 Fair CLR 80.2 63.3 56% 82 30.02 0.0
11 00:15 SE 7 10.00 Fair CLR 81.1 62.2 53% 82 30.02 0.0
10 23:55 SE 10 10.00 Fair CLR 81.5 61.7 51% 82 30.02 0.0
10 23:35 SE 9 10.00 Fair CLR 81.3 61.7 51% 82 30.02 0.0
10 23:15 SE 9 10.00 Fair CLR 81.5 61.7 51% 82 30.02 0.0
10 22:55 SE 8 10.00 Fair CLR 81.5 61.9 51% 82 30.01 0.0
10 22:35 SE 7 10.00 Fair CLR 81.7 61.9 51% 83 30.01 0.0
10 22:15 SE 7 10.00 Fair CLR 82.6 61.7 49% 83 30 0.0
10 21:55 SE 9 10.00 Fair CLR 82.8 61.7 49% 83 30 0.0
10 20:45 E 7 10.00 Fair CLR 84.2 62.6 48% 85 29.99 0.0
10 19:45 E 9 10.00 Fair CLR 89.6 60.8 38% 90 29.98 0.0
10 18:45 SE 7 10.00 Fair CLR 91.4 57.2 32% 90 29.97 0.0
10 17:45 E 7 10.00 Fair CLR 91.4 55.4 30% 90 29.98 0.0
10 16:45 E 8 10.00 Fair CLR 91.4 57.2 32% 90 29.99 0.0
10 15:52 E 12 10.00 Fair CLR 91.4 60.8 36% 91 30 0.0
10 14:45 NE 8 10.00 Fair CLR 89.6 60.8 38% 90 30.01 0.0
10 13:45 E 6 10.00 Fair CLR 91.4 55.4 30% 90 30.02 0.0
10 12:45 NW 6 10.00 Fair CLR 91.4 57.2 32% 90 30.03 0.0
10 11:45 N 7 7.00 Fair CLR 91.4 57.2 32% 90 30.04 0.0
10 10:45 NW 3 7.00 Fair CLR 86 66.2 52% 88 30.04 0.0
10 09:45 NW 3 7.00 Fair CLR 82.4 66.2 58% 85 30.05 0.0
10 08:45 SW 5 7.00 Fair CLR 80.6 64.4 58% 82 30.04 0.0
10 07:45 SE 3 10.00 Fair CLR 73.4 66.2 78% 30.03 0.0
10 07:35 SE 3 10.00 Fair CLR 73.6 66.4 78% 30.03 0.0
10 07:15 SE 5 10.00 Fair CLR 72.3 66.2 81% 30.02 0.0
10 06:55 S 3 10.00 Fair CLR 71.6 66 75.9 69.8 83% 30.02 0.0
10 06:35 Calm 10.00 Fair CLR 70.5 65.7 85% 30.02 0.0
10 06:15 Calm 10.00 Fair CLR 70.7 65.8 85% 30.02 0.0
10 05:55 S 7 10.00 Fair CLR 70.2 65.8 86% 30.01 0.0
10 05:35 S 5 10.00 Fair CLR 71.2 66.2 84% 30.01 0.0
10 05:15 S 5 10.00 Fair CLR 72 66.2 82% 30.01 0.0
10 04:55 S 5 10.00 Fair CLR 71.4 66.7 85% 30.01 0.0
10 04:35 S 3 10.00 Fair CLR 70.9 66.4 86% 30.01 0.0
10 04:15 S 5 10.00 Fair CLR 72.3 67.1 84% 30.01 0.0
10 03:55 S 3 10.00 Fair CLR 73 67.5 83% 30.01 0.0
10 03:35 SE 3 10.00 Fair CLR 72.3 66.9 83% 30.01 0.0
10 03:15 Calm 10.00 Fair CLR 72.5 67.6 85% 30.01 0.0
10 02:55 S 3 10.00 Fair CLR 73.2 67.5 82% 30.01 0.0
10 02:35 Calm 10.00 Fair CLR 73.2 67.3 82% 30.01 0.0
10 02:15 Calm 10.00 Fair CLR 73.2 67.1 81% 30.01 0.0
10 01:55 S 3 10.00 Fair CLR 74.8 67.5 78% 30.01 0.0
10 01:35 S 3 10.00 Fair CLR 75 67.3 77% 76 30.01 0.0
10 01:15 S 3 10.00 Fair CLR 75 67.1 76% 76 30.01 0.0
10 00:55 Calm 10.00 Fair CLR 75.9 67.3 88.5 73.6 75% 77 30.01 0.0
10 00:35 Calm 10.00 Fair CLR 74.1 68.2 82% 30.01 0.0
10 00:15 Calm 10.00 Fair CLR 75.2 68.2 79% 76 30.01 0.0
09 23:55 Calm 10.00 Fair CLR 75 67.5 77% 76 30.01 0.0
09 23:35 Calm 10.00 Fair CLR 76.1 67.6 75% 77 30 0.0
09 23:15 Calm 10.00 Fair CLR 76.3 66.4 72% 78 30 0.0
09 22:55 Calm 10.00 Fair CLR 78.6 66.4 66% 81 29.99 0.0
09 22:35 SE 3 10.00 Fair CLR 80.4 65.8 61% 82 29.98 0.0
09 22:15 SE 3 10.00 Fair CLR 80.6 65.8 61% 83 29.98 0.0
09 21:55 S 3 10.00 Fair CLR 81 66 61% 83 29.97 0.0
09 20:45 E 7 10.00 Fair CLR 82.4 64.4 55% 84 29.95 0.0
09 19:45 E 7 10.00 Fair CLR 87.8 59 38% 87 29.94 0.0
Date Time (cdt) Wind (mph) Vis. (mi.) Weather Sky Cond. Air Dwpt Max. Min. Relative Humidity Wind Chill (°F) Heat Index (°F) altimeter (in) sea level (mb) 1 hr 3 hr 6 hr
6 hour
Temperature (ºF) Pressure Precipitation (in)